Location: Antioch Baptist Church
(32.6696°N, 85.7327°W)
Time: 12:24:52
(UTC+00:00)

Cosmos 2221 - Pass Details

Date: 14 July 2020
Orbit: 592 x 616 km, 82.5° (Epoch: 08 August)

Event Time Altitude Azimuth Distance (km) Brightness Sun altitude
Rises 03:29:08 0° 344° (NNW) 2,869 7.1 -26.3°
Reaches altitude 10° 03:31:28 10° 337° (NNW) 1,957 6.1 -26.6°
Maximum altitude 03:35:29 39° 268° (W) 913 3.6 -27.1°
Enters shadow 03:35:30 39° 267° (W) 913 3.6 -27.1°
